Terug naar catalogus

STARLINK-36488

ActiefCommunicatieVLEO
NORAD 67306·PAYLOAD·🇺🇸 United States

Gelanceerd Jan 4, 2026 vanaf Cape Canaveral Space Force Station

Loading…

Volgende Passages (komende 24 uur)

TLE

VersSource: CelesTrak SupGP

Epoch: Sep 14, 2026, 21:39 UTC

1 67306C 26002B   26257.90256944 -.00021681  00000+0 -78532-3 0  2577
2 67306  43.0009 336.9857 0001302 273.3991  72.4400 15.27587915    19

Volg STARLINK-36488 in realtime met AllMySat

Download on the App Store